SOYUZ-MS 26

Last updated on Sun Oct 06 2024 00:02:04 GMT+0000 (Coordinated Universal Time)

1 61043U 24162A 24279.46943132 .00032942 00000+0 59769-3 0 9993 2 61043 51.6363 129.1425 0009147 39.7917 320.3740 15.49242162475507
UTC large
Height (km)
Speed (km/s)
/
Latitude / Longitude
Inclination (degrees)
Orbital Period (minutes)
Azimuth
Elevation
Range (km)
Doppler Factor

Next 0 passes for location: London (51.5072 / 0.1276)

Sorry there are no passes over London.